Regional Weather Roundup
Issued by NWS Sterling, VA

Home | Current Version | Previous Version | Text Only | Print | Product List | Glossary On
Versions: 1 2 3 4 5 6 7 8 9 10 11 12 13 14 15 16 17 18 19 20 21 22 23 24 25 26 27 28 29 30 31 32 33 34 35 36 37 38 39 40 41 42 43 44 45 46 47 48 49 50
000
ASUS41 KLWX 252310
RWRLWX

REGIONAL WEATHER ROUNDUP
NATIONAL WEATHER SERVICE BALTIMORE MD/WASHINGTON DC
700 PM EDT SAT MAR 25 2017

Note: "FAIR" indicates few or no clouds below 12,000 feet
with no significant weather and/or obstructions to visibility.
 TC=TEMPERATURE CELSIUS

 * =Non NWS site. Station does not report precipitation (e.g. rain,
    snow, etc.), thunder, or fog.

DCZ001-MDZ009-015-VAZ040>042-051-053>054-260000-
WASHINGTON METRO

CITY           SKY/WX    TMP DP  RH WIND       PRES   REMARKS
WASHINGTON NAT CLOUDY    72  52  49 NE3       30.15R
DULLES         CLOUDY    71  53  52 E3        30.15R
ANDREWS AFB    CLOUDY    73  51  45 E7        30.15R
FT BELVOIR     CLOUDY    76  50  40 CALM      30.14R
QUANTICO       CLOUDY    70  52  52 SW6       30.14R
COLLEGE PARK*  CLOUDY    68  54  60 CALM      30.15R
LEESBURG*      CLOUDY    75  55  50 SE3       30.16R
MANASSAS*        N/A     76  51  41 E6        30.14R

$$

MDZ006>007-011-014-260000-
BALTIMORE METRO

CITY           SKY/WX    TMP DP  RH WIND       PRES   REMARKS
BWI AIRPORT    CLOUDY    72  51  47 SE7       30.15R
MD SCIENCE CTR   N/A     72  50  45 MISG      30.16R
MARTIN STATE   CLOUDY    66  54  63 CALM      30.17R
ANNAPOLIS      CLOUDY    65  52  62 CALM      30.16R
FORT MEADE*    CLOUDY    70  50  49 E6        30.18R

$$

MDZ012-015-019>023-260000-
MARYLAND EASTERN SHORE

CITY           SKY/WX    TMP DP  RH WIND       PRES   REMARKS
OCEAN CITY     MOCLDY    57  49  74 SW5       30.19R
SALISBURY      PTCLDY    70  55  59 S5        30.18R
BAY BRIDGE AP* CLOUDY    68  52  56 SE3       30.16R
CAMBRIDGE*     CLEAR     68  54  60 SE7       30.17S
EASTON*        PTCLDY    73  50  43 S3        30.20R

$$

MDZ017>025-260000-
SOUTHERN MARYLAND

CITY           SKY/WX    TMP DP  RH WIND       PRES   REMARKS
PATUXENT RIVER CLOUDY    55  51  86 SE5       30.16R
ST INIGOES     CLOUDY    67  53  61 NE3       30.15R
LEONARDTOWN*   CLOUDY    66  50  55 CALM      30.18R

$$

MDZ003>005-260000-
NORTH CENTRAL MARYLAND

CITY           SKY/WX    TMP DP  RH WIND       PRES   REMARKS
FREDERICK*     CLOUDY    75  57  53 SE3       30.17R
HAGERSTOWN APT CLOUDY    72  53  51 S3        30.14R
WESTMINSTER*   CLOUDY    72  55  56 CALM      30.17R

$$

MDZ501>502-260000-
WESTERN MARYLAND

CITY           SKY/WX    TMP DP  RH WIND       PRES   REMARKS
OAKLAND*       MOCLDY    61  46  59 CALM      30.21S
CUMBERLAND*    CLOUDY    73  46  38 CALM      30.17S

$$

VAZ025>031-260000-
SHENANDOAH VALLEY

CITY           SKY/WX    TMP DP  RH WIND       PRES   REMARKS
WINCHESTER*    CLOUDY    68  52  56 CALM      30.15S
FRONT ROYAL*   CLOUDY    72  52  49 CALM      30.14R
LURAY*         CLOUDY    72  54  53 NE6       30.14S
NEW MARKET*    CLOUDY    71  51  48 N6        30.14R
STAUNTON*      CLOUDY    71  50  47 S6        30.17R
WAYNESBORO*    CLOUDY    70  51  51 S3        30.16R

$$

WVZ021-048>050-054>055-260000-
EASTERN WEST VIRGINIA PANHANDLE

CITY           SKY/WX    TMP DP  RH WIND       PRES   REMARKS
MARTINSBURG    CLOUDY    72  50  45 SE3       30.13S
PETERSBURG*    PTCLDY    74  52  46 NE3       30.15R

$$

VAZ036>039-050-260000-
CENTRAL FOOTHILLS

CITY           SKY/WX    TMP DP  RH WIND       PRES   REMARKS
CHARLOTTESVILL PTCLDY    74  50  42 S12       30.14R
CULPEPER*      CLOUDY    72  55  53 CALM      30.14R
ORANGE*        CLOUDY    73  50  43 S6        30.15R
GORDONSVILLE*  CLOUDY    73  52  47 SW8       30.14R
WARRENTON*     CLOUDY    73  50  43 CALM      30.13S

$$

VAZ055>057-260000-
NORTH AND CENTRAL PIEDMONT

CITY           SKY/WX    TMP DP  RH WIND       PRES   REMARKS
FREDERICKSBRG* PTCLDY    77  52  42 S9        30.13R
STAFFORD*      CLOUDY    76  51  41 S3        30.18R

$$

NCZ024-NYZ072-PAZ021-071-VAZ022-071-260000-
OTHER REGIONAL OBSERVATIONS

CITY           SKY/WX    TMP DP  RH WIND       PRES   REMARKS
NEW YORK CITY  CLOUDY    50  39  66 E3        30.30S
PHILADELPHIA   CLOUDY    58  50  75 NE16G31   30.24R
PITTSBURGH     CLOUDY    70  52  52 E3        30.13S
ROANOKE        MOCLDY    71  49  45 SE9       30.17R
RICHMOND       CLOUDY    71  51  49 S9        30.17R
RALEIGH        MOCLDY    72  48  42 S8        30.19F

$$

ANZ530>537-260000-
MARINE OBSERVATIONS

STATION/POSITION TIME  TEMP    WIND        PRES
                       AIR SEA DIR/SP/G
                 (UTC) (F)     (DEG/KT/KT) (MB)
THOMAS PT LIGHT  2300   71 47  150/  9/  9   N/A
BALT KEY BRIDGE  2242   65     110/  4/  4 1020.9R
COVE POINT       2242   58     190/ 11/ 12 1021.8R
LEWISETTA        2242   74 53  230/  6/  7 1020.8R
SOLOMONS ISLAND  2242   56 48   80/  7/  8   N/A
PINEY POINT      2236          110/  6/  6   N/A

$$




USA.gov is the U.S. government's official web portal to all federal, state and local government web resources and services.